Date String (YYYY-MM-DD hh:mm:ss) UTC,Instrument flags,Ambient pressure (hPa),Sample flow (lpm),Bypass flow (lpm),Sample temperature (°C),Ambient temperature (°C),ASC tube jacket temperature (°C),LED temperature (°C),Box temperature (°C),Sample RH (%),Span deviation,Mass concentration (μg/m³),Mass concentration (μg/m³),Mass concentration (μg/m³)
DateTimeUTC,F1_M11,P_M11,Q1_M11,Q2_M11,T1_M11,T2_M11,T3_M11,T4_M11,T5_M11,U1_M11,ZSPAN_M11,X0_M11,X2_M11,X1_M11
2023-01-10 10:00:00,,0818.7,5.01,0.00,21.5,20.2,00.0,30.4,23.2,14.3,0000.0,0007.54,0003.74,0003.39
2023-01-10 10:01:00,,0818.7,5.00,0.00,21.5,20.2,00.0,30.4,23.2,14.3,0000.0,0006.97,0003.72,0003.38
2023-01-10 10:02:00,,0818.8,4.99,0.00,21.5,20.3,00.0,30.4,23.2,14.2,0000.0,0006.82,0003.75,0003.40
2023-01-10 10:03:00,,0818.9,5.00,0.00,21.5,20.2,00.0,30.4,23.2,13.8,0000.0,0006.40,0003.70,0003.36
2023-01-10 10:04:00,,0818.9,5.02,0.00,21.5,20.0,00.0,30.4,23.1,14.2,0000.0,0006.80,0003.79,0003.45
2023-01-10 10:05:00,,0818.9,4.99,0.00,21.5,19.7,00.0,30.4,23.0,14.4,0000.0,0007.50,0004.03,0003.66
2023-01-10 10:06:00,,0819.0,5.01,0.00,21.4,19.5,00.0,30.4,22.9,14.4,0000.0,0007.77,0004.27,0003.90
2023-01-10 10:07:00,,0818.9,5.00,0.00,21.4,19.4,00.0,30.4,22.8,14.4,0000.0,0008.15,0004.52,0004.12
2023-01-10 10:08:00,,0818.9,4.98,0.00,21.3,19.3,00.0,30.3,22.7,14.3,0000.0,0008.24,0004.62,0004.23
2023-01-10 10:09:00,,0818.9,5.01,0.00,21.3,19.3,00.0,30.3,22.7,14.2,0000.0,0008.28,0004.67,0004.30
2023-01-10 10:10:00,,0818.9,5.01,0.00,21.2,19.4,00.0,30.3,22.7,14.2,0000.0,0008.45,0004.75,0004.37
2023-01-10 10:11:00,,0819.0,5.00,0.00,21.3,20.6,00.0,30.2,23.0,14.1,0000.0,0008.34,0004.64,0004.27
2023-01-10 10:12:00,,0818.9,4.99,0.00,21.4,21.9,00.0,30.2,23.3,14.0,0000.0,0007.97,0004.50,0004.15
2023-01-10 10:13:00,,0818.8,5.00,0.00,21.6,22.6,00.0,30.3,23.6,13.9,0000.0,0007.82,0004.39,0004.04
2023-01-10 10:14:00,,0818.9,4.99,0.00,21.7,22.3,00.0,30.4,23.7,13.7,0000.0,0007.76,0004.35,0003.99
2023-01-10 10:15:00,,0818.9,4.99,0.00,21.7,21.8,00.0,30.4,23.6,13.3,0000.0,0007.61,0004.26,0003.90
2023-01-10 10:16:00,,0818.8,5.00,0.00,21.7,21.4,00.0,30.4,23.5,12.5,0000.0,0006.71,0004.02,0003.68
2023-01-10 10:17:00,,0818.8,5.00,0.00,21.7,21.0,00.0,30.5,23.4,12.3,0000.0,0006.25,0003.76,0003.42
2023-01-10 10:18:00,,0818.8,5.00,0.00,21.7,20.6,00.0,30.5,23.3,12.5,0000.0,0005.60,0003.49,0003.16
2023-01-10 10:19:00,,0819.0,4.99,0.00,21.7,20.3,00.0,30.5,23.2,13.1,0000.0,0005.17,0003.29,0002.87
2023-01-10 10:20:00,,0819.0,5.02,0.00,21.6,20.0,00.0,30.5,23.2,13.9,0000.0,0005.23,0003.23,0002.73
2023-01-10 10:21:00,,0818.9,5.03,0.00,21.6,19.8,00.0,30.5,23.1,14.1,0000.0,0005.03,0003.19,0002.68
2023-01-10 10:22:00,,0818.7,5.03,0.00,21.5,19.6,00.0,30.5,23.0,14.1,0000.0,0005.26,0003.25,0002.77
2023-01-10 10:23:00,,0818.7,5.01,0.00,21.5,19.7,00.0,30.5,23.0,13.9,0000.0,0005.49,0003.32,0002.86
2023-01-10 10:24:00,,0818.7,5.01,0.00,21.5,19.8,00.0,30.4,23.1,13.9,0000.0,0005.19,0003.21,0002.73
2023-01-10 10:25:00,,0818.7,5.00,0.00,21.5,19.9,00.0,30.4,23.2,14.3,0000.0,0004.95,0003.10,0002.57
2023-01-10 10:26:00,,0818.7,5.00,0.00,21.5,20.1,00.0,30.4,23.2,14.1,0000.0,0004.93,0003.02,0002.48
2023-01-10 10:27:00,,0818.7,5.00,0.00,21.5,20.2,00.0,30.4,23.2,13.6,0000.0,0004.99,0003.04,0002.51
2023-01-10 10:28:00,,0818.7,5.00,0.00,21.5,20.2,00.0,30.4,23.2,13.5,0000.0,0004.93,0003.08,0002.58
2023-01-10 10:29:00,,0818.7,5.01,0.00,21.5,20.3,00.0,30.4,23.2,13.2,0000.0,0004.94,0003.11,0002.61
2023-01-10 10:30:00,,0818.7,5.00,0.00,21.5,20.2,00.0,30.4,23.2,13.4,0000.0,0004.73,0002.98,0002.54
2023-01-10 10:31:00,,0818.7,4.99,0.00,21.5,20.1,00.0,30.4,23.2,13.2,0000.0,0005.21,0002.60,0002.18
2023-01-10 10:32:00,,0818.7,5.00,0.00,21.5,20.1,00.0,30.4,23.2,13.2,0000.0,0005.34,0002.20,0001.78
2023-01-10 10:33:00,,0818.7,5.00,0.00,21.5,20.2,00.0,30.4,23.2,13.4,0000.0,0004.74,0001.83,0001.44
2023-01-10 10:34:00,,0818.6,5.01,0.00,21.5,20.3,00.0,30.4,23.2,13.5,0000.0,0004.34,0001.56,0001.19
2023-01-10 10:35:00,,0818.5,5.00,0.00,21.5,20.3,00.0,30.4,23.2,13.9,0000.0,0004.25,0001.48,0001.12
2023-01-10 10:36:00,,0818.6,4.99,0.00,21.5,20.3,00.0,30.4,23.2,13.7,0000.0,0004.28,0001.51,0001.14
2023-01-10 10:37:00,,0818.5,5.00,0.00,21.5,20.3,00.0,30.4,23.3,13.6,0000.0,0004.13,0001.48,0001.16
2023-01-10 10:38:00,,0818.4,5.01,0.00,21.5,20.3,00.0,30.4,23.3,15.2,0000.0,0003.90,0001.35,0001.05
2023-01-10 10:39:00,,0818.4,5.00,0.00,21.6,20.3,00.0,30.4,23.3,15.8,0000.0,0003.72,0001.22,0000.92
2023-01-10 10:40:00,,0818.4,4.99,0.00,21.6,20.3,00.0,30.4,23.3,14.5,0000.0,0003.53,0001.11,0000.85
2023-01-10 10:41:00,,0818.4,4.99,0.00,21.5,20.2,00.0,30.4,23.2,15.6,0000.0,0003.44,0001.06,0000.82
2023-01-10 10:42:00,,0818.2,5.02,0.00,21.6,21.1,00.0,30.4,23.4,16.5,0000.0,0002.28,0000.96,0000.76
2023-01-10 10:43:00,,0818.1,5.00,0.00,21.7,22.3,00.0,30.4,23.7,16.7,0000.0,0001.18,0000.84,0000.68
2023-01-10 10:44:00,,0818.0,5.00,0.00,21.9,22.8,00.0,30.4,24.0,16.6,0000.0,0000.99,0000.72,0000.61
2023-01-10 10:45:00,,0818.0,4.99,0.00,21.9,22.3,00.0,30.5,23.9,16.5,0000.0,0000.81,0000.60,0000.52
2023-01-10 10:46:00,,0818.0,5.00,0.00,21.9,21.8,00.0,30.6,23.8,16.6,0000.0,0000.69,0000.51,0000.44
2023-01-10 10:47:00,,0817.9,5.00,0.00,21.9,21.4,00.0,30.6,23.8,16.8,0000.0,0000.59,0000.43,0000.39
2023-01-10 10:48:00,,0817.9,5.01,0.00,22.0,21.3,00.0,30.6,23.7,16.7,0000.0,0000.47,0000.34,0000.30
2023-01-10 10:49:00,,0818.0,5.00,0.00,22.0,21.2,00.0,30.6,23.7,16.6,0000.0,0000.39,0000.28,0000.24
2023-01-10 10:50:00,,0818.0,4.99,0.00,22.0,21.0,00.0,30.6,23.7,16.7,0000.0,0000.34,0000.25,0000.22
2023-01-10 10:51:00,,0818.1,5.00,0.00,22.0,20.9,00.0,30.7,23.7,16.7,0000.0,0000.29,0000.21,0000.19
2023-01-10 10:52:00,,0818.1,5.00,0.00,21.9,20.8,00.0,30.7,23.7,16.8,0000.0,0000.25,0000.17,0000.15
2023-01-10 10:53:00,,0818.2,5.00,0.00,21.9,20.8,00.0,30.7,23.6,16.7,0000.0,0000.26,0000.17,0000.15
2023-01-10 10:54:00,,0818.1,5.00,0.00,21.9,20.6,00.0,30.7,23.6,16.8,0000.0,0000.28,0000.18,0000.15
2023-01-10 10:55:00,,0818.0,5.00,0.00,21.9,20.5,00.0,30.7,23.6,17.2,0000.0,0000.28,0000.18,0000.15
2023-01-10 10:56:00,,0818.0,5.00,0.00,21.9,20.5,00.0,30.7,23.6,17.0,0000.0,0000.29,0000.18,0000.15
2023-01-10 10:57:00,,0817.9,5.00,0.00,21.9,20.5,00.0,30.7,23.6,17.0,0000.0,0000.28,0000.18,0000.15
2023-01-10 10:58:00,,0818.0,5.01,0.00,21.9,20.5,00.0,30.7,23.5,17.0,0000.0,0000.30,0000.18,0000.14
2023-01-10 10:59:00,,0818.0,5.00,0.00,21.9,20.5,00.0,30.7,23.5,16.9,0000.0,0000.37,0000.19,0000.14
